Time,TemperatureF,DewpointF,PressureIn,WindDirection,WindDirectionDegrees,WindSpeedMPH,WindSpeedGustMPH,Humidity,HourlyPrecipIn,Conditions,Clouds,dailyrainin,SoftwareType,DateUTC
2013-05-19 00:01:00,43.0,40.0,-100.00,WSW,247,2.0,4.0,87,0.00,,,-99.99,,2013-05-19 06:01:00,
2013-05-19 00:11:00,43.0,40.0,-100.00,WSW,247,2.0,4.0,87,0.00,,,-99.99,,2013-05-19 06:11:00,
2013-05-19 00:21:00,43.0,40.0,-100.00,West,264,2.0,3.0,91,0.00,,,-99.99,,2013-05-19 06:21:00,
2013-05-19 00:31:00,43.0,40.0,-100.00,West,264,2.0,3.0,91,0.00,,,-99.99,,2013-05-19 06:31:00,
2013-05-19 00:42:00,43.0,40.0,-100.00,SW,227,2.0,3.0,91,0.00,,,-99.99,,2013-05-19 06:42:00,
2013-05-19 00:52:00,42.0,40.0,-100.00,WSW,237,2.0,3.0,91,0.00,,,-99.99,,2013-05-19 06:52:00,
2013-05-19 01:01:00,42.0,40.0,-100.00,WSW,237,2.0,3.0,91,0.00,,,-99.99,,2013-05-19 07:01:00,
2013-05-19 01:11:00,42.0,40.0,-100.00,WSW,237,2.0,3.0,91,0.00,,,-99.99,,2013-05-19 07:11:00,
2013-05-19 01:21:00,41.0,40.0,-100.00,SW,236,3.0,4.0,94,0.00,,,-99.99,,2013-05-19 07:21:00,
2013-05-19 01:32:00,41.0,40.0,-100.00,SW,236,3.0,4.0,94,0.00,,,-99.99,,2013-05-19 07:32:00,
2013-05-19 01:42:00,41.0,40.0,-100.00,WSW,241,2.0,4.0,96,0.00,,,-99.99,,2013-05-19 07:42:00,
2013-05-19 01:52:00,41.0,40.0,-100.00,West,260,3.0,4.0,96,0.00,,,-99.99,,2013-05-19 07:52:00,
2013-05-19 02:01:00,41.0,40.0,-100.00,West,260,3.0,4.0,96,0.00,,,-99.99,,2013-05-19 08:01:00,
2013-05-19 02:12:00,41.0,41.0,-100.00,WSW,254,5.0,6.0,97,0.00,,,-99.99,,2013-05-19 08:12:00,
2013-05-19 02:21:00,41.0,41.0,-100.00,WSW,254,5.0,6.0,97,0.00,,,-99.99,,2013-05-19 08:21:00,
2013-05-19 02:32:00,41.0,41.0,-100.00,WSW,254,5.0,6.0,97,0.00,,,-99.99,,2013-05-19 08:32:00,
2013-05-19 02:41:00,41.0,41.0,-100.00,WSW,254,5.0,6.0,97,0.00,,,-99.99,,2013-05-19 08:41:00,
2013-05-19 02:52:00,41.0,41.0,-100.00,WSW,247,4.0,5.0,99,0.00,,,-99.99,,2013-05-19 08:52:00,
2013-05-19 03:02:00,41.0,41.0,-100.00,WSW,247,4.0,5.0,99,0.00,,,-99.99,,2013-05-19 09:02:00,
2013-05-19 03:11:00,41.0,41.0,-100.00,WSW,241,4.0,6.0,99,0.00,,,-99.99,,2013-05-19 09:11:00,
2013-05-19 03:21:00,41.0,41.0,-100.00,WSW,250,4.0,6.0,99,0.00,,,-99.99,,2013-05-19 09:21:00,
2013-05-19 03:32:00,41.0,41.0,-100.00,WSW,250,4.0,6.0,99,0.00,,,-99.99,,2013-05-19 09:32:00,
2013-05-19 03:42:00,41.0,41.0,-100.00,WSW,248,5.0,6.0,99,0.00,,,-99.99,,2013-05-19 09:42:00,
2013-05-19 03:53:00,41.0,41.0,-100.00,WSW,248,4.0,5.0,99,0.00,,,-99.99,,2013-05-19 09:53:00,
2013-05-19 04:02:00,41.0,41.0,-100.00,WSW,248,4.0,5.0,99,0.00,,,-99.99,,2013-05-19 10:02:00,
2013-05-19 04:12:00,41.0,41.0,-100.00,WSW,248,5.0,6.0,99,0.00,,,-99.99,,2013-05-19 10:12:00,
2013-05-19 04:22:00,41.0,41.0,-100.00,WSW,246,3.0,5.0,100,0.00,,,-99.99,,2013-05-19 10:22:00,
2013-05-19 04:32:00,41.0,41.0,-100.00,WSW,246,3.0,5.0,100,0.00,,,-99.99,,2013-05-19 10:32:00,
2013-05-19 04:42:00,41.0,41.0,-100.00,WSW,246,3.0,5.0,100,0.00,,,-99.99,,2013-05-19 10:42:00,
2013-05-19 04:52:00,41.0,41.0,-100.00,WSW,254,4.0,5.0,99,0.00,,,-99.99,,2013-05-19 10:52:00,
2013-05-19 05:02:00,41.0,41.0,-100.00,WSW,254,4.0,5.0,99,0.00,,,-99.99,,2013-05-19 11:02:00,
2013-05-19 05:11:00,41.0,41.0,-100.00,WSW,244,3.0,5.0,99,0.00,,,-99.99,,2013-05-19 11:11:00,
2013-05-19 05:21:00,41.0,41.0,-100.00,West,265,3.0,5.0,99,0.00,,,-99.99,,2013-05-19 11:21:00,
2013-05-19 05:32:00,41.0,41.0,-100.00,West,265,3.0,5.0,99,0.00,,,-99.99,,2013-05-19 11:32:00,
2013-05-19 05:42:00,41.0,40.0,-100.00,WSW,240,3.0,4.0,99,0.00,,,-99.99,,2013-05-19 11:42:00,
2013-05-19 05:52:00,41.0,40.0,-100.00,WSW,237,2.0,4.0,99,0.00,,,-99.99,,2013-05-19 11:52:00,
2013-05-19 06:01:00,41.0,40.0,-100.00,WSW,237,2.0,4.0,99,0.00,,,-99.99,,2013-05-19 12:01:00,
2013-05-19 06:11:00,41.0,40.0,-100.00,West,267,2.0,3.0,99,0.00,,,-99.99,,2013-05-19 12:11:00,
2013-05-19 06:21:00,41.0,40.0,-100.00,SW,232,3.0,5.0,98,0.00,,,-99.99,,2013-05-19 12:21:00,
2013-05-19 06:31:00,41.0,40.0,-100.00,SW,232,3.0,5.0,98,0.00,,,-99.99,,2013-05-19 12:31:00,
2013-05-19 06:41:00,40.0,40.0,-100.00,SW,236,3.0,5.0,98,0.00,,,-99.99,,2013-05-19 12:41:00,
2013-05-19 06:52:00,40.0,40.0,-100.00,SW,236,3.0,5.0,98,0.00,,,-99.99,,2013-05-19 12:52:00,
2013-05-19 07:01:00,40.0,40.0,-100.00,SW,236,3.0,5.0,98,0.00,,,-99.99,,2013-05-19 13:01:00,
2013-05-19 07:11:00,40.0,40.0,-100.00,West,260,3.0,5.0,98,0.00,,,-99.99,,2013-05-19 13:11:00,
2013-05-19 07:21:00,40.0,40.0,-100.00,West,261,4.0,6.0,98,0.00,,,-99.99,,2013-05-19 13:21:00,
2013-05-19 07:31:00,40.0,40.0,-100.00,West,261,4.0,6.0,98,0.00,,,-99.99,,2013-05-19 13:31:00,
2013-05-19 07:42:00,41.0,40.0,-100.00,West,281,4.0,6.0,96,0.00,,,-99.99,,2013-05-19 13:42:00,
2013-05-19 07:52:00,41.0,40.0,-100.00,West,271,4.0,6.0,95,0.00,,,-99.99,,2013-05-19 13:52:00,
2013-05-19 08:02:00,41.0,40.0,-100.00,West,271,4.0,6.0,95,0.00,,,-99.99,,2013-05-19 14:02:00,
2013-05-19 08:11:00,41.0,40.0,-100.00,West,260,2.0,5.0,95,0.00,,,-99.99,,2013-05-19 14:11:00,
2013-05-19 08:21:00,42.0,40.0,-100.00,West,270,4.0,6.0,94,0.00,,,-99.99,,2013-05-19 14:21:00,
2013-05-19 08:31:00,42.0,40.0,-100.00,West,270,4.0,6.0,94,0.00,,,-99.99,,2013-05-19 14:31:00,
2013-05-19 08:41:00,42.0,40.0,-100.00,West,271,4.0,5.0,92,0.00,,,-99.99,,2013-05-19 14:41:00,
2013-05-19 08:52:00,43.0,40.0,-100.00,West,274,4.0,6.0,90,0.00,,,-99.99,,2013-05-19 14:52:00,
2013-05-19 09:01:00,43.0,40.0,-100.00,West,274,4.0,6.0,90,0.00,,,-99.99,,2013-05-19 15:01:00,
2013-05-19 09:11:00,43.0,40.0,-100.00,West,270,4.0,7.0,88,0.00,,,-99.99,,2013-05-19 15:11:00,
2013-05-19 09:21:00,44.0,40.0,-100.00,West,270,4.0,7.0,87,0.00,,,-99.99,,2013-05-19 15:21:00,
2013-05-19 09:32:00,44.0,40.0,-100.00,West,270,4.0,7.0,87,0.00,,,-99.99,,2013-05-19 15:32:00,
2013-05-19 09:43:00,44.0,40.0,-100.00,West,264,4.0,6.0,86,0.00,,,-99.99,,2013-05-19 15:43:00,
2013-05-19 09:53:00,44.0,40.0,-100.00,West,274,4.0,6.0,88,0.00,,,-99.99,,2013-05-19 15:53:00,
2013-05-19 10:03:00,44.0,40.0,-100.00,West,274,4.0,6.0,88,0.00,,,-99.99,,2013-05-19 16:03:00,
2013-05-19 10:12:00,44.0,41.0,-100.00,West,270,4.0,6.0,88,0.00,,,-99.99,,2013-05-19 16:12:00,
2013-05-19 10:23:00,44.0,41.0,-100.00,West,270,4.0,6.0,88,0.00,,,-99.99,,2013-05-19 16:23:00,
2013-05-19 10:32:00,44.0,41.0,-100.00,West,270,4.0,6.0,88,0.00,,,-99.99,,2013-05-19 16:32:00,
2013-05-19 10:42:00,43.0,40.0,-100.00,West,268,5.0,8.0,87,0.00,,,-99.99,,2013-05-19 16:42:00,
2013-05-19 10:52:00,44.0,41.0,-100.00,West,274,4.0,6.0,88,0.00,,,-99.99,,2013-05-19 16:52:00,
2013-05-19 11:02:00,44.0,41.0,-100.00,West,274,4.0,6.0,88,0.00,,,-99.99,,2013-05-19 17:02:00,
2013-05-19 11:12:00,45.0,41.0,-100.00,WNW,282,4.0,7.0,86,0.00,,,-99.99,,2013-05-19 17:12:00,
2013-05-19 11:22:00,44.0,41.0,-100.00,WNW,289,5.0,7.0,88,0.00,,,-99.99,,2013-05-19 17:22:00,
2013-05-19 11:32:00,44.0,41.0,-100.00,WNW,289,5.0,7.0,88,0.00,,,-99.99,,2013-05-19 17:32:00,
2013-05-19 11:42:00,44.0,40.0,-100.00,West,277,6.0,9.0,87,0.00,,,-99.99,,2013-05-19 17:42:00,
2013-05-19 11:52:00,44.0,40.0,-100.00,West,272,7.0,11.0,85,0.00,,,-99.99,,2013-05-19 17:52:00,
2013-05-19 12:02:00,44.0,40.0,-100.00,West,272,7.0,11.0,85,0.00,,,-99.99,,2013-05-19 18:02:00,
2013-05-19 12:12:00,45.0,41.0,-100.00,West,267,4.0,9.0,84,0.00,,,-99.99,,2013-05-19 18:12:00,
2013-05-19 12:21:00,45.0,41.0,-100.00,West,267,4.0,9.0,84,0.00,,,-99.99,,2013-05-19 18:21:00,
2013-05-19 12:32:00,45.0,41.0,-100.00,West,267,4.0,9.0,84,0.00,,,-99.99,,2013-05-19 18:32:00,
2013-05-19 12:42:00,45.0,40.0,-100.00,West,278,7.0,11.0,82,0.00,,,-99.99,,2013-05-19 18:42:00,
2013-05-19 12:53:00,46.0,40.0,-100.00,West,277,8.0,13.0,81,0.00,,,-99.99,,2013-05-19 18:53:00,
2013-05-19 13:01:00,46.0,40.0,-100.00,West,277,8.0,13.0,81,0.00,,,-99.99,,2013-05-19 19:01:00,
2013-05-19 13:11:00,47.0,41.0,-100.00,WNW,296,5.0,9.0,79,0.00,,,-99.99,,2013-05-19 19:11:00,
2013-05-19 13:21:00,47.0,41.0,-100.00,WNW,282,7.0,12.0,79,0.00,,,-99.99,,2013-05-19 19:21:00,
2013-05-19 13:31:00,47.0,41.0,-100.00,WNW,282,7.0,12.0,79,0.00,,,-99.99,,2013-05-19 19:31:00,
2013-05-19 13:42:00,47.0,41.0,-100.00,West,275,7.0,10.0,81,0.00,,,-99.99,,2013-05-19 19:42:00,
2013-05-19 13:52:00,47.0,41.0,-100.00,West,275,7.0,10.0,81,0.00,,,-99.99,,2013-05-19 19:52:00,
2013-05-19 14:02:00,47.0,41.0,-100.00,West,275,7.0,10.0,81,0.00,,,-99.99,,2013-05-19 20:02:00,
2013-05-19 14:11:00,47.0,41.0,-100.00,West,268,4.0,6.0,78,0.00,,,-99.99,,2013-05-19 20:11:00,
2013-05-19 14:21:00,47.0,40.0,-100.00,West,263,5.0,8.0,76,0.00,,,-99.99,,2013-05-19 20:21:00,
2013-05-19 14:31:00,47.0,40.0,-100.00,West,263,5.0,8.0,76,0.00,,,-99.99,,2013-05-19 20:31:00,
2013-05-19 14:41:00,48.0,40.0,-100.00,West,272,5.0,7.0,74,0.00,,,-99.99,,2013-05-19 20:41:00,
2013-05-19 14:52:00,48.0,40.0,-100.00,West,272,5.0,7.0,74,0.00,,,-99.99,,2013-05-19 20:52:00,
2013-05-19 15:02:00,48.0,40.0,-100.00,West,272,5.0,7.0,74,0.00,,,-99.99,,2013-05-19 21:02:00,
2013-05-19 15:11:00,48.0,42.0,-100.00,West,261,5.0,8.0,78,0.00,,,-99.99,,2013-05-19 21:11:00,
2013-05-19 15:22:00,50.0,40.0,-100.00,West,265,4.0,7.0,70,0.00,,,-99.99,,2013-05-19 21:22:00,
2013-05-19 15:32:00,50.0,40.0,-100.00,West,265,4.0,7.0,70,0.00,,,-99.99,,2013-05-19 21:32:00,
2013-05-19 15:43:00,50.0,41.0,-100.00,WSW,257,4.0,6.0,72,0.00,,,-99.99,,2013-05-19 21:43:00,
2013-05-19 15:53:00,51.0,40.0,-100.00,WSW,254,5.0,7.0,66,0.00,,,-99.99,,2013-05-19 21:53:00,
2013-05-19 16:02:00,51.0,40.0,-100.00,WSW,254,5.0,7.0,66,0.00,,,-99.99,,2013-05-19 22:02:00,
2013-05-19 16:12:00,51.0,40.0,-100.00,WSW,254,5.0,7.0,66,0.00,,,-99.99,,2013-05-19 22:12:00,
2013-05-19 16:23:00,54.0,40.0,-100.00,North,1,5.0,9.0,61,0.00,,,-99.99,,2013-05-19 22:23:00,
2013-05-19 16:33:00,54.0,40.0,-100.00,North,1,5.0,9.0,61,0.00,,,-99.99,,2013-05-19 22:33:00,
2013-05-19 16:42:00,52.0,39.0,-100.00,WNW,289,2.0,5.0,62,0.00,,,-99.99,,2013-05-19 22:42:00,
2013-05-19 16:53:00,53.0,37.0,-100.00,West,263,2.0,5.0,54,0.00,,,-99.99,,2013-05-19 22:53:00,
2013-05-19 17:02:00,53.0,37.0,-100.00,West,263,2.0,5.0,54,0.00,,,-99.99,,2013-05-19 23:02:00,
2013-05-19 17:11:00,53.0,41.0,-100.00,West,274,6.0,9.0,63,0.00,,,-99.99,,2013-05-19 23:11:00,
2013-05-19 17:21:00,53.0,41.0,-100.00,West,274,6.0,9.0,63,0.00,,,-99.99,,2013-05-19 23:21:00,
2013-05-19 17:32:00,53.0,41.0,-100.00,West,274,6.0,9.0,63,0.00,,,-99.99,,2013-05-19 23:32:00,
2013-05-19 17:42:00,53.0,36.0,-100.00,East,80,5.0,10.0,53,0.00,,,-99.99,,2013-05-19 23:42:00,
2013-05-19 17:52:00,53.0,40.0,-100.00,West,268,3.0,6.0,60,0.00,,,-99.99,,2013-05-19 23:52:00,
2013-05-19 18:02:00,53.0,40.0,-100.00,West,268,3.0,6.0,60,0.00,,,-99.99,,2013-05-20 00:02:00,
2013-05-19 18:11:00,53.0,41.0,-100.00,North,1,4.0,8.0,62,0.00,,,-99.99,,2013-05-20 00:11:00,
2013-05-19 18:21:00,54.0,40.0,-100.00,West,278,6.0,15.0,61,0.00,,,-99.99,,2013-05-20 00:21:00,
2013-05-19 18:31:00,54.0,40.0,-100.00,West,278,6.0,15.0,61,0.00,,,-99.99,,2013-05-20 00:31:00,
2013-05-19 18:41:00,53.0,41.0,-100.00,NNW,332,4.0,8.0,63,0.00,,,-99.99,,2013-05-20 00:41:00,
2013-05-19 18:52:00,51.0,40.0,-100.00,NW,308,5.0,9.0,66,0.00,,,-99.99,,2013-05-20 00:52:00,
2013-05-19 19:01:00,51.0,40.0,-100.00,NW,308,5.0,9.0,66,0.00,,,-99.99,,2013-05-20 01:01:00,
2013-05-19 19:11:00,52.0,40.0,-100.00,West,277,5.0,9.0,66,0.00,,,-99.99,,2013-05-20 01:11:00,
2013-05-19 19:21:00,52.0,40.0,-100.00,West,277,5.0,9.0,66,0.00,,,-99.99,,2013-05-20 01:21:00,
2013-05-19 19:31:00,52.0,40.0,-100.00,West,277,5.0,9.0,66,0.00,,,-99.99,,2013-05-20 01:31:00,
2013-05-19 19:42:00,51.0,40.0,-100.00,West,267,4.0,8.0,67,0.00,,,-99.99,,2013-05-20 01:42:00,
2013-05-19 19:52:00,50.0,39.0,-100.00,West,274,5.0,8.0,67,0.00,,,-99.99,,2013-05-20 01:52:00,
2013-05-19 20:02:00,50.0,39.0,-100.00,West,274,5.0,8.0,67,0.00,,,-99.99,,2013-05-20 02:02:00,
2013-05-19 20:11:00,50.0,40.0,-100.00,NNE,16,1.0,2.0,68,0.00,,,-99.99,,2013-05-20 02:11:00,
2013-05-19 20:21:00,50.0,40.0,-100.00,West,261,2.0,4.0,68,0.00,,,-99.99,,2013-05-20 02:21:00,
2013-05-19 20:31:00,50.0,40.0,-100.00,West,261,2.0,4.0,68,0.00,,,-99.99,,2013-05-20 02:31:00,
2013-05-19 20:42:00,50.0,40.0,-100.00,West,261,2.0,4.0,68,0.00,,,-99.99,,2013-05-20 02:42:00,
2013-05-19 20:52:00,49.0,40.0,-100.00,WNW,298,2.0,3.0,69,0.00,,,-99.99,,2013-05-20 02:52:00,
2013-05-19 21:01:00,49.0,40.0,-100.00,WNW,298,2.0,3.0,69,0.00,,,-99.99,,2013-05-20 03:01:00,
2013-05-19 21:11:00,48.0,39.0,-100.00,WNW,299,2.0,5.0,73,0.00,,,-99.99,,2013-05-20 03:11:00,
2013-05-19 21:21:00,46.0,39.0,-100.00,WSW,237,1.0,3.0,76,0.00,,,-99.99,,2013-05-20 03:21:00,
2013-05-19 21:33:00,46.0,39.0,-100.00,WSW,237,1.0,3.0,76,0.00,,,-99.99,,2013-05-20 03:33:00,
2013-05-19 21:42:00,45.0,38.0,-100.00,NNE,14,2.0,3.0,77,0.00,,,-99.99,,2013-05-20 03:42:00,
2013-05-19 21:52:00,44.0,38.0,-100.00,SW,234,2.0,4.0,79,0.00,,,-99.99,,2013-05-20 03:52:00,
2013-05-19 22:02:00,44.0,38.0,-100.00,SW,234,2.0,4.0,79,0.00,,,-99.99,,2013-05-20 04:02:00,
2013-05-19 22:12:00,44.0,38.0,-100.00,SW,234,2.0,5.0,78,0.00,,,-99.99,,2013-05-20 04:12:00,
2013-05-19 22:23:00,44.0,37.0,-100.00,WSW,253,2.0,3.0,77,0.00,,,-99.99,,2013-05-20 04:23:00,
2013-05-19 22:33:00,44.0,37.0,-100.00,WSW,253,2.0,3.0,77,0.00,,,-99.99,,2013-05-20 04:33:00,
2013-05-19 22:42:00,45.0,37.0,-100.00,West,267,3.0,4.0,74,0.00,,,-99.99,,2013-05-20 04:42:00,
2013-05-19 22:52:00,44.0,37.0,-100.00,SW,226,2.0,4.0,75,0.00,,,-99.99,,2013-05-20 04:52:00,
2013-05-19 23:02:00,44.0,37.0,-100.00,SW,226,2.0,4.0,75,0.00,,,-99.99,,2013-05-20 05:02:00,
2013-05-19 23:11:00,45.0,37.0,-100.00,WSW,239,4.0,9.0,75,0.00,,,-99.99,,2013-05-20 05:11:00,
2013-05-19 23:21:00,44.0,37.0,-100.00,SW,236,3.0,6.0,75,0.00,,,-99.99,,2013-05-20 05:21:00,
2013-05-19 23:30:00,43.0,37.0,-100.00,West,260,2.0,4.0,80,0.00,,,-99.99,,2013-05-20 05:30:00,
2013-05-19 23:32:00,44.0,37.0,-100.00,SW,236,3.0,6.0,75,0.00,,,-99.99,,2013-05-20 05:32:00,
2013-05-19 23:42:00,43.0,37.0,-100.00,WSW,253,3.0,6.0,79,0.00,,,-99.99,,2013-05-20 05:42:00,
2013-05-19 23:52:00,43.0,37.0,-100.00,West,260,2.0,4.0,80,0.00,,,-99.99,,2013-05-20 05:52:00,